CST,Max TemperatureF,Mean TemperatureF,Min TemperatureF,Max Dew PointF,MeanDew PointF,Min DewpointF,Max Humidity, Mean Humidity, Min Humidity, Max Sea Level PressureIn, Mean Sea Level PressureIn, Min Sea Level PressureIn, Max VisibilityMiles, Mean VisibilityMiles, Min VisibilityMiles, Max Wind SpeedMPH, Mean Wind SpeedMPH, Max Gust SpeedMPH,PrecipitationIn, CloudCover, Events, WindDirDegrees
2013-2-1,75,63,50,50,45,40,83,55,27,30.35,30.27,30.22,10,10,10,21,9,30,0.00,1,,135
2013-2-2,79,67,55,57,54,50,86,66,45,30.25,30.21,30.15,10,10,10,15,8,20,0.00,3,Fog,138
2013-2-3,76,63,50,59,54,48,100,75,49,30.30,30.22,30.04,10,7,0,17,8,20,0.00,3,Fog,54
2013-2-4,83,72,61,63,61,56,87,69,51,30.02,29.89,29.80,10,10,10,26,13,31,T,3,,154
2013-2-5,88,73,58,67,62,55,93,68,42,29.96,29.90,29.85,10,6,0,17,8,21,T,3,Fog-Rain,149
2013-2-6,74,70,65,70,65,60,97,88,78,30.01,29.90,29.82,10,6,0,23,14,28,0.40,7,Fog-Rain-Thunderstorm,84
2013-2-7,77,70,63,67,63,60,93,81,69,30.00,29.93,29.88,10,7,0,13,5,17,0.00,6,Fog,52
2013-2-8,75,67,58,63,54,48,93,66,38,30.20,30.10,30.01,10,8,0,22,11,28,0.00,2,Fog,35
2013-2-9,76,69,61,69,64,57,87,81,74,30.06,29.94,29.80,10,9,5,30,18,38,0.02,7,Rain,123
2013-2-10,86,77,68,70,61,46,90,65,40,29.93,29.83,29.75,10,8,4,26,16,32,0.00,6,,108
2013-2-11,68,64,59,59,54,47,87,68,48,29.98,29.93,29.89,10,7,2,22,17,37,0.01,8,Rain,43
2013-2-12,73,66,58,59,57,53,93,73,53,29.99,29.88,29.83,10,5,1,21,9,24,T,6,Rain,350
2013-2-13,67,58,48,56,40,35,84,58,32,30.18,30.08,29.99,10,10,10,24,10,29,T,2,,13
2013-2-14,71,57,43,46,40,28,83,53,22,30.15,30.09,30.05,10,10,10,16,7,18,0.00,0,,91
2013-2-15,74,61,47,53,46,40,86,62,37,30.32,30.16,30.06,10,10,10,28,10,32,0.00,2,,82
2013-2-16,69,57,44,40,29,23,60,39,18,30.49,30.37,30.29,10,10,10,26,11,32,0.00,1,,10
2013-2-17,74,57,39,56,44,32,79,57,34,30.27,30.14,30.01,10,10,10,32,16,39,0.00,4,,165
2013-2-18,84,74,64,64,61,57,84,68,51,30.00,29.93,29.84,10,10,10,28,19,35,T,5,,164
2013-2-19,71,65,59,61,50,41,90,67,43,30.20,30.10,29.99,10,10,10,29,18,36,0.00,6,,71
2013-2-20,77,71,64,67,64,55,84,79,73,30.03,29.84,29.68,10,10,8,32,22,40,0.00,8,,129
2013-2-21,85,77,69,68,61,47,84,60,36,29.81,29.69,29.59,10,9,4,29,17,37,T,4,Rain,143
2013-2-22,75,68,60,53,46,40,67,48,29,29.94,29.87,29.81,10,10,10,25,16,31,0.00,4,,42
2013-2-23,75,63,51,53,43,37,72,54,35,30.04,29.95,29.88,10,10,10,23,12,25,T,3,Rain,16
2013-2-24,69,57,44,64,57,40,93,82,71,29.91,29.77,29.61,10,5,0,14,7,16,0.01,6,Fog-Rain,79
2013-2-25,77,66,54,66,44,11,93,51,8,29.90,29.67,29.53,10,6,0,54,25,63,0.00,4,,281
2013-2-26,77,58,38,43,28,13,71,40,9,30.02,29.93,29.86,10,10,10,17,9,22,0.00,0,,260
2013-2-27,81,63,44,52,37,23,83,48,12,30.19,30.04,29.89,10,10,10,26,10,32,0.00,0,,356
2013-2-28,65,55,45,30,25,19,42,31,19,30.31,30.25,30.19,10,10,10,26,14,32,0.00,0,,14